CW5586 Weather Reports


time (UTC)temp
C
wind
direction
speed
KPH
gust
KPH
rain 1hr
cm
rain 24hr
cm
rain mn
cm
humidity
%
barometer
mb
20260507214604 4 0 0.0 0.0 0.00 0.00 0.00 59 1020.0
20260507213604 5 0 0.0 0.0 0.00 0.00 0.00 58 1019.9
20260507213103 5 0 0.0 0.0 0.00 0.00 0.00 57 1019.9
20260507211605 5 0 0.0 0.0 0.00 0.00 0.00 56 1019.7
20260507211104 5 0 0.0 1.6 0.00 0.00 0.00 56 1019.7
20260507210604 5 0 0.0 1.6 0.00 0.00 0.00 56 1019.6
20260507204604 6 0 0.0 3.2 0.00 0.00 0.00 51 1019.5
20260507204104 6 0 0.0 3.2 0.00 0.00 0.00 50 1019.5
20260507203604 6 349 1.6 3.2 0.00 0.00 0.00 50 1019.4
20260507203104 7 0 0.0 3.2 0.00 0.00 0.00 49 1019.4
20260507200604 8 0 0.0 3.2 0.00 0.00 0.00 46 1019.1
20260507194604 8 5 0.0 3.2 0.00 0.00 0.00 44 1019.0
20260507193104 10 333 1.6 3.2 0.00 0.00 0.00 40 1018.8
20260507191603 10 300 1.6 3.2 0.00 0.00 0.00 37 1018.7
20260507191104 11 307 0.0 3.2 0.00 0.00 0.00 36 1018.7
20260507190115 11 299 1.6 4.8 0.00 0.00 0.00 36 1018.5
20260507183604 12 338 1.6 8.0 0.00 0.00 0.00 32 1018.2
20260507183104 12 319 1.6 14.5 0.00 0.00 0.00 32 1018.1
20260507181604 12 315 8.0 14.5 0.00 0.00 0.00 30 1018.0
20260507180115 13 297 4.8 16.1 0.00 0.00 0.00 29 1017.9
20260507174104 13 289 4.8 19.3 0.00 0.00 0.00 29 1017.7
20260507173104 13 231 9.7 14.5 0.00 0.00 0.00 29 1017.6
20260507171104 13 334 11.3 19.3 0.00 0.00 0.00 29 1017.5
20260507170604 14 299 4.8 14.5 0.00 0.00 0.00 30 1017.5
20260507164604 15 276 4.8 8.0 0.00 0.00 0.00 29 1017.3
20260507164104 14 345 1.6 19.3 0.00 0.00 0.00 31 1017.2
20260507163604 14 278 11.3 19.3 0.00 0.00 0.00 30 1017.3
20260507163104 15 275 12.9 16.1 0.00 0.00 0.00 31 1017.3
20260507160115 15 306 14.5 19.3 0.00 0.00 0.00 31 1017.1
20260507154104 15 297 8.0 16.1 0.00 0.00 0.00 30 1017.0
20260507153604 15 278 8.0 16.1 0.00 0.00 0.00 29 1016.9
20260507153103 15 300 11.3 20.9 0.00 0.00 0.00 29 1016.8
20260507151104 15 331 4.8 19.3 0.00 0.00 0.00 29 1016.8
20260507144103 15 284 12.9 16.1 0.00 0.00 0.00 30 1016.8
20260507143604 15 242 8.0 16.1 0.00 0.00 0.00 30 1016.9
20260507143103 15 228 11.3 19.3 0.00 0.00 0.00 31 1016.9
20260507133604 15 0 3.2 12.9 0.00 0.00 0.00 34 1016.7
20260507131603 16 5 1.6 19.3 0.00 0.00 0.00 33 1016.6
20260507124604 14 53 3.2 12.9 0.00 0.00 0.00 36 1016.5
20260507124105 15 332 4.8 12.9 0.00 0.00 0.00 36 1016.6
20260507123104 15 79 1.6 14.5 0.00 0.00 0.00 37 1016.5
20260507121103 15 190 9.7 20.9 0.00 0.00 0.00 39 1016.3
20260507120604 14 117 1.6 19.3 0.00 0.00 0.00 39 1016.3
20260507120115 13 313 16.1 19.3 0.00 0.00 0.00 39 1016.4
20260507114604 13 298 11.3 14.5 0.00 0.00 0.00 40 1016.4
20260507113604 13 296 3.2 20.9 0.00 0.00 0.00 39 1016.5
20260507111604 13 288 3.2 9.7 0.00 0.00 0.00 39 1016.7
20260507104604 13 274 9.7 12.9 0.00 0.00 0.00 39 1016.4
20260507103604 13 239 8.0 9.7 0.00 0.00 0.00 38 1016.4
20260507100604 13 273 8.0 19.3 0.00 0.00 0.00 40 1016.2
20260507100115 13 325 3.2 19.3 0.00 0.00 0.00 40 1016.2
20260507094103 13 0 0.0 14.5 0.00 0.00 0.00 43 1015.9
20260507093604 13 178 3.2 14.5 0.00 0.00 0.00 44 1015.9
20260507093103 13 338 8.0 14.5 0.00 0.00 0.00 44 1016.0
20260507091605 12 279 4.8 8.0 0.00 0.00 0.00 41 1016.0
20260507084604 12 261 4.8 16.1 0.00 0.00 0.00 48 1015.9
20260507084104 12 279 4.8 16.1 0.00 0.00 0.00 47 1016.1
20260507083603 11 173 3.2 19.3 0.00 0.00 0.00 49 1015.9
20260507083103 11 217 8.0 19.3 0.00 0.00 0.00 48 1015.9
20260507081104 11 236 4.8 9.7 0.00 0.00 0.00 53 1015.7
20260507080605 11 207 1.6 8.0 0.00 0.00 0.00 53 1015.6
20260507080115 11 327 4.8 12.9 0.00 0.00 0.00 54 1015.6
20260507074604 10 36 3.2 12.9 0.00 0.00 0.00 56 1015.6
20260507074104 10 10 4.8 11.3 0.00 0.00 0.00 55 1015.4
20260507073604 10 309 1.6 12.9 0.00 0.00 0.00 60 1015.4
20260507073104 10 286 1.6 12.9 0.00 0.00 0.00 58 1015.5
20260507071104 9 268 3.2 8.0 0.00 0.00 0.00 63 1015.3
20260507064604 8 273 4.8 4.8 0.00 0.00 0.00 66 1015.4
20260507064104 8 208 3.2 4.8 0.00 0.00 0.00 67 1015.4
20260507063104 7 155 3.2 3.2 0.00 0.00 0.00 69 1015.3
20260507061104 6 147 1.6 3.2 0.00 0.00 0.00 72 1015.2
20260507054604 5 0 0.0 3.2 0.00 0.00 0.00 78 1015.2
20260507051104 3 0 0.0 0.0 0.00 0.00 0.00 86 1014.9
20260507050604 3 0 0.0 0.0 0.00 0.00 0.00 86 1014.9
20260507050115 2 0 0.0 0.0 0.00 0.00 0.00 87 1014.8
20260507044604 2 0 0.0 0.0 0.00 0.00 0.00 91 1014.6
20260507041104 0 0 0.0 1.6 0.00 0.00 0.00 89 1014.5
20260507040114 0 0 0.0 3.2 0.00 0.00 0.00 88 1014.4
20260507034605 0 352 1.6 1.6 0.00 0.00 0.00 87 1014.4
20260507034104 0 0 0.0 0.0 0.00 0.00 0.00 87 1014.3
20260507033103 0 0 0.0 3.2 0.00 0.00 0.00 85 1014.4
20260507031104 0 0 0.0 0.0 0.00 0.00 0.00 87 1014.4
20260507030115 0 0 0.0 1.6 0.00 0.00 0.00 89 1014.3
20260507024604 0 0 0.0 3.2 0.00 0.00 0.00 88 1014.1
20260507023604 0 352 1.6 1.6 0.00 0.00 0.00 87 1014.0
20260507023104 0 351 1.6 3.2 0.00 0.00 0.00 86 1014.0
20260507020604 0 352 1.6 3.2 0.00 0.00 0.00 85 1013.9
20260507020115 0 0 0.0 3.2 0.00 0.00 0.00 85 1014.0
20260507014105 0 351 0.0 3.2 0.00 0.00 0.00 85 1013.9
20260507013104 0 0 0.0 1.6 0.00 0.00 0.00 85 1013.9
20260507011604 0 351 1.6 1.6 0.00 0.00 0.00 85 1013.8
20260507010604 0 351 0.0 1.6 0.00 0.00 0.00 85 1013.7
20260507001103 1 0 0.0 3.2 0.00 0.00 0.00 79 1013.3
20260507000602 1 290 0.0 3.2 0.00 0.00 0.00 79 1013.3
20260506234102 2 0 0.0 3.2 0.00 0.00 0.00 73 1013.3
20260506233604 2 0 0.0 3.2 0.00 0.00 0.00 72 1013.1
20260506233104 3 0 0.0 3.2 0.00 0.00 0.00 71 1013.2
20260506231603 3 0 0.0 3.2 0.00 0.00 0.00 69 1013.1
20260506231103 3 0 0.0 3.2 0.00 0.00 0.00 69 1013.0
20260506230114 4 0 0.0 3.2 0.00 0.00 0.00 70 1012.9
20260506224604 5 280 1.6 3.2 0.00 0.00 0.00 66 1012.9
20260506224103 5 311 0.0 1.6 0.00 0.00 0.00 67 1012.9
20260506223603 5 311 0.0 3.2 0.00 0.00 0.00 66 1012.9
20260506223104 5 0 0.0 3.2 0.00 0.00 0.00 65 1012.9